Location: Poprad
(49.0500°N, 20.3000°E)
Time: 13:12:55
(UTC+02:00)

ISS - Visible Passes

Search period start: 14 May 2021 00:00
Search period end: 24 May 2021 00:00
Orbit: 417 x 422 km, 51.6° (Epoch: 14 May)

Date Brightness Start Highest point End Pass type
(mag) Time Alt. Az. Time Alt. Az. Time Alt. Az.
14 May -3.0 01:18:38 28° WNW 01:20:08 52° N 01:23:27 10° ENE visible
14 May -3.8 02:53:44 10° WNW 02:57:07 90° WSW 03:00:31 10° ESE visible
14 May -2.1 21:17:17 10° S 21:19:21 15° SE 21:21:25 10° E visible
14 May -3.9 22:52:20 10° WSW 22:57:49 20° ENE 22:59:02 10° ENE visible
15 May -3.0 00:29:17 10° W 00:32:37 54° N 00:35:56 10° ENE visible
15 May -3.6 02:06:17 10° WNW 02:09:40 72° NNE 02:13:02 10° E visible
15 May -3.0 03:43:16 10° W 03:46:19 32° SW 03:49:22 10° SSE visible
15 May -3.6 22:05:01 10° SW 22:08:17 49° SSE 22:11:33 10° ENE visible
15 May -3.2 23:41:46 10° W 23:45:06 59° N 23:48:27 10° ENE visible
16 May -3.3 01:18:49 10° WNW 01:22:10 60° N 01:25:31 10° E visible
16 May -3.6 02:55:42 10° WNW 02:58:58 47° SSW 03:02:14 10° SE visible
16 May -3.1 21:17:51 10° SSW 21:20:55 33° SSE 21:24:00 10° E visible
16 May -3.5 22:54:14 10° W 22:57:36 70° NNW 23:00:58 10° ENE visible
17 May -3.0 00:31:20 10° WNW 00:34:39 54° N 00:37:59 10° E visible
17 May -3.9 02:08:12 10° WNW 02:11:33 67° SSW 02:14:55 10° ESE visible
17 May -2.0 03:45:54 10° W 03:47:53 15° SW 03:49:51 10° S visible
17 May -3.8 22:06:45 10° WSW 22:10:07 88° NNW 22:13:30 10° ENE visible
17 May -3.0 23:43:49 10° WNW 23:47:08 52° N 23:49:59 13° ENE visible
18 May -2.7 01:20:44 10° WNW 01:22:53 36° WNW 01:22:53 36° WNW visible
18 May -3.8 21:19:19 10° WSW 21:22:40 70° SSE 21:26:02 10° ENE visible
18 May -3.0 22:56:17 10° W 22:59:35 54° N 23:02:54 10° ENE visible
19 May -3.5 00:33:16 10° WNW 00:36:27 69° NNW 00:36:27 69° NNW visible
19 May -3.2 22:08:43 10° W 22:12:03 59° N 22:15:24 10° ENE visible
19 May -3.3 23:45:47 10° WNW 23:49:08 60° N 23:50:16 36° ENE visible
20 May -1.3 01:22:41 10° WNW 01:23:11 14° WNW 01:23:11 14° WNW visible
20 May -3.4 21:21:11 10° W 21:24:32 70° NNW 21:27:55 10° ENE visible
20 May -3.1 22:58:16 10° WNW 23:01:35 54° N 23:04:09 16° E visible
21 May -2.4 00:35:09 10° WNW 00:37:05 31° W 00:37:05 31° W visible
21 May -2.9 22:10:45 10° WNW 22:14:03 52° N 22:17:22 10° ENE visible
21 May -3.9 23:47:40 10° WNW 23:51:02 89° WSW 23:51:02 89° WSW visible
22 May -3.0 21:23:11 10° W 21:26:30 53° N 21:29:49 10° ENE visible
22 May -3.6 23:00:11 10° WNW 23:03:33 72° NNE 23:05:01 31° E visible
23 May -1.4 00:37:10 10° W 00:37:57 15° W 00:37:57 15° W visible
23 May -3.3 22:12:41 10° WNW 22:16:01 60° N 22:19:01 12° E visible
23 May -2.8 23:49:34 10° WNW 23:51:57 36° WSW 23:51:57 36° WSW visible
